STARLINK-35490, 66204

Orbit data source: Space-Track

STARLINK-35490, 66204 is a payload satellite owned by SpaceX/Seattle (US) in LEO that was launched on Sun, 26 Oct 2025 UTC via an FALCON 9 launch vehicle from the Air Force Eastern Test Range (AFETR). Payload-class satellites include a variety of spacecraft equipped with specific instruments for various scientific and technological missions. These include communications satellites like Starlink; space stations such as the ISS; scientific satellites like the Hubble; Earth observation satellites from companies like Planet Labs, Umbra, and HawkEye 360; GPS; miniature CubeSats for education and research; and military/defense satellites.

Loading next visibility...
Identifier
66204, 2025-243AD
Orbit
LEO
Country
Flag of USUS
Related business
Manufacturer
SpaceX/Seattle
Mission
Operational Commercial Communications
Bus & Motor
STARLINK V2MO, Unknown motor
Mass
575 kg wet, ~530 kg dry
Launch date (UTC)
2025-10-26 (4 months ago)
Launch vehicle
FALCON 9
Launch site
Air Force Eastern Test Range (AFETR)
Object type
Payload
Rocket body
Debris
Shape & HBR
Box + 2 Pan, 17.7 m
Radar Cross Section
36.964 m²

Expand to show TLE details & history
Last TLE update: 9 hours ago

TLE from 9 hours ago
0 STARLINK-35490
1 66204U 25243AD  26061.77212162  .00022724  00000-0  77678-3 0  9992
2 66204  53.1571 277.4555 0001428  85.5125 274.6039 15.30209606 19595
Epoch: 2026-03-02T18:31Z
TLE epoch observation values (Epoch: 2026-03-02T18:31:51.307Z)
Latitude
-0.00003°
Longitude
-161.06904°
Altitude
476.007 km
Speed
7.629 km/s
True Right ascension
18h 29m 49s
True Declination
0° 00' 00"
Sunlit
Object was in daylight at epoch
Visualization orbit readout
Latitude
Unknown
Longitude
Unknown
Altitude
Unknown
Speed
Unknown
Apparent Right ascension
Unknown
Apparent Declination
Unknown
Sunlit
N/A
Visualization observer readout
Local Sidereal Time
07:12:25
Azimuth
Unknown
Elevation
Unknown
Doppler factor
Unknown
Orbital elements
Apogee altitude
476.422 km
Perigee altitude
474.465 km
Semi-major axis
6,853.58 km
Eccentricity
0.00014
Inclination
53.1571°
RAAN
277.4555°
Arg. of periapsis
85.5125°
True anomaly
274.58759°
Mean anomaly
274.6039°
Eccentric anomaly
274.59574°
Mean motion
3.82531 °/min
Orbital period
94.11 mins
BSTAR
0.00077678
Loading maneuver chart data...
Computing Atmospheric mass density...
Loading historical data...
Loading historical data...
Loading historical data...
Loading historical data...
Loading historical data...
Loading historical data...
Loading historical data...

Documentation

Showing up to 5 results
|